Portada
METAR-TAF:

METAR-TAF

Aeroports :

Roben-Hood Airport

Big Rapids, Michigan, Estats Units d'Amèrica

latitud: 43-43-21N, longitud: 085-30-15W, altitud: 302 m

Observació

L'informe es va fer fa 21 minuts, a les 09:35 UTC
Vent 4 kt del Oest
Temperatura 1°C
Humitat 100%
Pressió 1008 hPa
Visibilitat: 8.0 km
Cel cobert a una alçada de 500 ft
neu

METAR: KRQB 260935Z AUTO 27004KT 5SM -SN OVC005 01/01 A2977 RMK AO2 T00110005

Hora: 04:56 (09:56 UTC)


TAF: manca

Observacions i pronòstics meteorològics de més de 4000 aeroports (METAR i TAF).

Les estacions disponibles són els punts grocs i vermells al mapa.

Posi el ratolí al punt desitjat per veure el nom de l'estació.

Feu clic per veure les observacions i els pronòstics meteorològics.

Per canviar el mapa: feu clic els botons verds amb una creu de color negre per apropar; al botó verd amb un guió per allunyar la imatge; o en les fletxes verdes per a mapes adjacents.


METAR-TAF: